Location: Fort Collins
(40.5850°N, 105.0840°W)
Time: 03:57:44
(UTC-07:00)

Daily predictions for brighter satellites

Satellite Brightness Start Highest point End
(mag) Time Altitude Azimuth Time Altitude Azimuth Time Altitude Azimuth
CZ-3 R/B 4.4 02:35:26 10° W 03:30:33 47° SSW 03:41:05 10° SE
Cosmos 2297 Rocket 4.2 03:46:57 24° E 03:46:57 24° E 03:50:13 10° NE
Cosmos 2227 Rocket 4.0 04:00:39 25° NE 04:00:39 25° NE 04:03:09 10° NE
Cosmos 2333 Rocket 3.6 04:32:19 28° SSE 04:32:19 28° SSE 04:34:51 10° SSE
Cosmos 2219 Rocket 4.2 04:52:59 15° S 04:52:59 15° S 04:53:54 10° S
Cosmos 2233 Rocket 4.4 04:50:51 10° S 04:56:56 62° E 05:03:09 10° NNE
COSMO-SKYMED 1 3.3 04:53:12 10° SSE 04:57:24 51° ENE 04:58:24 42° NNE
Cosmos 968 Rocket 4.2 05:01:53 10° S 05:06:58 54° ESE 05:12:06 10° NNE
NOAA 6 3.9 05:02:22 10° NNE 05:07:36 88° ESE 05:12:46 10° SSW
SeaSat 1 4.5 05:03:57 10° N 05:04:58 15° N 05:04:58 15° N
Cosmos 1500 Rocket 3.9 05:11:48 22° N 05:14:34 64° E 05:18:58 10° SSE
Cosmos 1816 Rocket 4.4 05:09:06 10° N 05:15:26 80° W 05:21:41 10° S
Cosmos 2237 Rocket 2.8 05:18:04 38° SW 05:18:04 38° SW 05:22:23 10° S
SL-16 R/B 2.1 05:17:40 30° NNW 05:20:37 89° ENE 05:26:17 10° SSE
USA 229 DEB 3.7 05:21:03 31° NW 05:24:46 74° WSW 05:31:58 10° SSE
USA 229 3.7 05:21:07 31° NW 05:24:52 75° WSW 05:32:04 10° SSE
Tsikada Rocket 4.0 05:19:05 10° NNW 05:25:17 55° W 05:31:24 10° SSW
Cosmos 2346 Rocket 4.4 05:20:05 10° N 05:26:15 89° E 05:32:19 10° S
SKYMED 3 4.4 05:23:06 10° S 05:27:25 73° WSW 05:28:48 42° NNW
Cosmos 220 Rocket 3.9 05:24:47 10° SSW 05:29:12 86° WNW 05:33:37 10° NNE
Cosmos 2297 Rocket 2.5 05:28:51 42° WNW 05:29:23 43° WNW 05:34:47 10° N
Cosmos 1340 Rocket 4.2 05:25:47 10° N 05:29:27 37° ENE 05:33:08 10° SE
Aureole 2 Rocket 2.9 05:31:11 56° W 05:31:18 56° WSW 05:35:23 10° S
Cosmos 1271 Rocket 3.2 05:34:23 10° S 05:38:09 59° E 05:41:54 10° NNE
Cosmos 540 Rocket 3.9 05:38:29 36° W 05:38:36 36° W 05:43:13 10° SSW
ISS -3.0 05:38:40 52° N 05:39:04 57° NNE 05:42:16 10° ESE
Cosmos 2227 Rocket 3.1 05:42:33 26° NW 05:42:33 26° NW 05:46:47 10° N
SL-14 R/B 3.3 05:38:23 11° N 05:42:21 84° E 05:46:24 10° S
Meteor 1-28 Rocket 3.0 05:39:37 10° S 05:43:23 74° WSW 05:45:39 23° NNW
Meteor 1-16 Rocket 4.0 05:38:02 10° S 05:43:30 88° W 05:48:52 10° N
OAO 2 Rocket 4.0 05:43:00 26° WSW 05:45:17 43° S 05:49:57 10° ESE
SKYMED 2 3.8 05:41:22 10° S 05:45:30 44° W 05:47:04 31° NW
IDEFIX/ARIANE 42P 4.1 05:40:47 10° NNE 05:45:43 39° E 05:50:37 10° SSE
Cosmos 1464 Rocket 4.4 05:39:40 10° S 05:45:57 68° E 05:52:12 10° NNE
Cosmos 304 Rocket 3.7 05:43:38 24° NNW 05:46:22 61° WSW 05:51:03 10° S
Meteor 1-4 Rocket 2.7 05:42:51 10° SSW 05:46:27 51° WNW 05:50:09 10° N
CZ-3 Stage 3 3.5 05:44:39 17° SW 05:47:46 34° S 06:01:06 10° ESE
CZ-4 R/B 2.4 05:52:26 10° NNE 05:56:21 48° E 06:00:19 10° S
ERBS 3.0 05:57:17 22° NNW 05:59:11 49° NE 06:02:30 10° ESE
Cosmos 1538 Rocket 4.0 05:56:39 10° NNW 06:02:01 68° WSW 06:07:18 10° S
Meteor 2-1 Rocket 4.3 05:56:30 10° S 06:02:04 86° E 06:07:48 10° N
Cosmos 1626 3.5 05:58:31 10° N 06:02:04 40° E 06:05:36 10° SSE
Meteor 2-12 Rocket 4.4 05:58:02 10° S 06:04:10 89° WNW 06:10:21 10° N
PSLV R/B 4.1 06:02:30 15° SW 06:05:02 45° SSE 06:08:15 10° E
Cosmos 1072 Rocket 4.4 05:59:04 10° S 06:05:15 79° W 06:11:25 10° N
Coronas F rocket 4.1 06:04:42 10° NE 06:06:18 16° ENE 06:07:55 10° ESE
BREEZE-M DEB (TANK) 4.5 05:54:54 16° WNW 06:06:24 44° WSW 06:10:49 10° SSE
USA 234 3.4 06:01:53 10° ESE 06:08:24 73° NE 06:14:46 11° NW
Cosmos 923 Rocket 4.4 06:04:19 10° NNW 06:09:30 63° ENE 06:14:41 10° SSE
Aureole 1 4.1 06:08:33 10° SSW 06:11:33 87° WNW 06:15:00 10° NNE
Cosmos 2221 2.4 06:08:30 10° SSW 06:12:49 71° W 06:17:09 10° N
Ariane Rocket 3.2 06:09:24 10° N 06:14:16 46° WNW 06:19:07 10° SW
SL-8 R/B 4.3 06:12:12 17° NW 06:15:45 48° NNE 06:20:23 10° E
Cosmos 1680 Rocket 4.1 06:13:34 10° NNW 06:18:48 59° ENE 06:24:02 10° SSE
NOSS 3-1 (C) 4.1 06:12:36 10° NW 06:20:14 77° WSW 06:28:35 10° SSE
CSL-04 Debris 4.2 06:15:45 10° N 06:21:09 60° WNW 06:26:30 10° SSW
Cosmos 389 Rocket 3.9 06:19:15 10° SSE 06:22:44 44° E 06:26:15 10° NNE
Cosmos 1603 3.7 06:18:48 10° NNW 06:24:26 76° WSW 06:30:03 10° SSE
Cosmos 1908 4.1 06:21:05 10° S 06:24:47 52° E 06:28:31 10° NNE
Cosmos 2058 3.5 06:26:06 10° NNW 06:29:51 35° W 06:33:36 10° SSW
AQUARIUS 4.1 06:26:42 10° NNE 06:31:13 84° WNW 06:35:42 10° SSW
TELKOM 3 3.4 06:29:53 12° WSW 06:32:10 42° NNW 06:34:14 10° NE
Cosmos 2263 Rocket 3.5 06:27:00 10° S 06:32:22 46° ESE 06:37:47 10° NE
COSMO-SKYMED 1 4.3 06:31:41 10° WSW 06:33:50 13° W 06:35:37 11° WNW
Cosmos 2228 Rocket 3.9 06:30:12 10° S 06:34:32 55° E 06:38:51 10° NNE
PAYLOAD A 4.3 06:36:58 10° N 06:41:42 41° WNW 06:46:14 10° SW
Cosmos 292 Rocket 3.7 06:37:09 10° NNW 06:41:56 74° WSW 06:46:42 10° S
CZ-2C R/B 2.3 06:38:47 10° N 06:43:17 56° WNW 06:47:43 10° SSW
Cosmos 1805 Rocket 3.9 06:40:13 10° NNW 06:44:25 44° W 06:48:34 10° SSW
Cosmos 2151 4.5 06:44:53 10° NW 06:47:39 17° W 06:50:24 10° SW
Helios 1B rocket 2.4 06:43:38 10° S 06:47:43 73° WSW 06:51:50 10° NNW
Genesis I 3.5 06:44:17 10° NW 06:48:04 49° WSW 06:51:50 10° SSE
CSL-04 Rocket 4.5 06:47:09 10° N 06:51:34 27° WNW 06:55:56 10° WSW
SMAP 3.2 06:47:27 10° N 06:51:59 52° WNW 06:56:29 10° SSW
Cosmos 2112 Rocket 4.1 06:47:47 10° NNW 06:53:07 81° WSW 06:58:27 10° SSE
Cosmos 1356 Rocket 4.0 06:51:23 10° NNW 06:55:09 36° W 06:58:56 10° SSW
MOS 1 4.3 06:49:37 10° N 06:55:16 69° WNW 07:00:55 10° SSW
Cosmos 1703 4.2 06:52:07 10° NNW 06:55:31 29° W 06:58:55 10° SSW
